User: anonymous   Login
Location: Angwan Shehu
(11.2514°N, 7.4613°E)
Time: 22:50:43
(UTC+00:00)
Language:

ARIANE 5 R/B - Orbit

View from above orbital plane
View from above orbital plane
View from above satellite
View from above satellite

Ground track
Ground track

The orbit data is extracted from the following two-line orbital elements,

1 29646U 06054D   20023.22352449 +.00000435 +00000-0 +21123-3 0  9994
2 29646 002.6219 231.9000 7049836 139.2002 304.2608 02.56082758115898
Epoch (UTC): 23 January 2020 05:21:52
Eccentricity: 0.7049836
inclination: 2.6219°
perigee height: 279 km
apogee height: 32098 km
right ascension of ascending node: 231.9000°
argument of perigee: 139.2002°
revolutions per day: 2.56082758
mean anomaly at epoch: 304.2608°
orbit number at epoch: 11589

The dashed part of the orbit path shows where the satellite is in the earth's shadow,  

DLR